Weather in Promysla

Russia / Perm Krai     58°33′49″N   59°09′18″E
temp.,
°C
wind,
m/s
gust,
m/s
humid.,
%
clouds,
%
prec.,
mm/h
press.,
hPa
HPBL,
m
21 january, fri
fri2123:00−11sw5139398 0.1 1017499
02:00−10sw51592100 0.1 1016578
05:00−10sw51592100 0.1 1017575
08:00−10sw51492100 0.1 1017536
11:00−10wsw51592100 0.1 1018524
14:00−9wsw51492100 0.1 1019546
17:00−9wsw51492100 0.2 1021545
20:00−10wsw5139497 0.0 1021440
22 january, sat
sat2223:00−11wsw51395100 0.1 1023385
02:00−12w4139592 0.0 1024335
05:00−13wsw3119690 0.1 1026258
08:00−19wsw2410090 0.0 102871
11:00−16wsw2710096 0.1 1028119
14:00−10wsw379394 0.0 1028246
17:00−15wsw219841 0.0 103010
20:00−19wsw22100100 0.0 103215
23 january, sun
sun2323:00−19w21100100 0.0 103317
02:00−19wsw22100100 0.0 103323
05:00−19wsw22100100 0.1 103419
08:00−19wsw22100100 0.0 103520
11:00−13wsw249799 0.0 103590
14:00−8wsw2687100 0.0 1034208
17:00−13wsw1197100 0.0 10369
20:00−12wsw2297100 0.0 103636
24 january, mon
mon2423:00−8wsw31092100 0.0 1036302
02:00−9wsw3991100 0.0 1036310
05:00−9wsw2894100 0.1 1036278
08:00−9wsw31094100 0.1 1037317
11:00−8wsw41094100 0.2 1038379
14:00−7wsw3993100 0.0 1037404
17:00−8wsw3993100 0.1 1036410
20:00−10w399681 0.1 1036262
25 january, tue
tue2523:00−11w31095100 0.1 1036253
02:00−11w41194100 0.0 1034344
05:00−12w4119487 0.1 1034322
08:00−13w4139696 0.1 1033323
11:00−11w41395100 0.1 1032334
14:00−9w41293100 0.0 1030373
17:00−9w5139398 0.1 1030419
20:00−10w51393100 0.0 1029370